Weather History for Paducah, KY

Change the Weather History Date:

Sunday, October 21, 2012

  Actual Average Record
Temperature  
Mean Temperature 62 °F 57 °F  
Max Temperature 78 °F 69 °F 88 °F (1953)
Min Temperature 45 °F 45 °F 26 °F (1952)
Degree Days  
Heating Degree Days 3 8  
Month to date heating degree days 168 129  
Since 1 July heating degree days 208 168  
Cooling Degree Days 0 1  
Month to date cooling degree days 8 32  
Year to date cooling degree days 1960 1532  
Growing Degree Days 12 (Base 50)    
Moisture  
Dew Point 50 °F    
Average Humidity 69    
Maximum Humidity 92    
Minimum Humidity 46    
Precipitation  
Precipitation 0.00 in 0.13 in 0.69 in (1983)
Month to date precipitation 2.00 2.74  
Year to date precipitation 23.18 38.97  
Snow  
Snow 0.00 in 0.00 in - ()
Month to date snowfall 0.0 0.0  
Since 1 July snowfall 0.0 0.0  
Since 1 September snowfall 0.0 0.0  
Snow Depth 0.00 in    
Sea Level Pressure  
Sea Level Pressure 29.99 in    
Wind  
Wind Speed 6 mph (South)    
Max Wind Speed 14 mph    
Max Gust Speed 18 mph    
Visibility 10 miles    
Events      
T = Trace of Precipitation, MM = Missing Value Source: NWS Daily Summary

Daily Weather History Graph

Daily Weather History Graph

Search for Another Location

Airport:

Trip Planner

Search our weather history database for the weather conditions in past years. The results will help you decide how hot, cold, wet, or windy it might be!

Date:

Astronomy

Oct. 21, 2012 Rise Set
Actual Time 7:08 AM CDT 6:09 PM CDT
Civil Twilight 6:42 AM CDT 6:36 PM CDT
Nautical Twilight 6:12 AM CDT 7:06 PM CDT
Astronomical Twilight 5:42 AM CDT 7:36 PM CDT
Moon 1:26 PM CDT (10/21) No Moon Set
Length of Visible Light 11h 53m
Length of Day
11h 00m
Waxing Crescent, 45% of the Moon is Illuminated
Oct 21
Waxing Crescent
Oct 21
First Quarter
Oct 29
Full
Nov 6
Last Quarter
Nov 13
New

Hourly Weather History & Observations

Time (CDT) Temp. Dew Point Humidity Pressure Visibility Wind Dir Wind Speed Gust Speed Precip Events Conditions
12:53 AM 48.9 °F 44.1 °F 83% 29.96 in 10.0 mi SE 4.6 mph - N/A   Clear
1:53 AM 50.0 °F 45.0 °F 83% 29.96 in 10.0 mi SSE 4.6 mph - N/A   Clear
2:53 AM 51.1 °F 44.1 °F 77% 29.97 in 10.0 mi Calm Calm - N/A   Clear
3:53 AM 48.9 °F 44.1 °F 83% 29.97 in 10.0 mi Calm Calm - N/A   Clear
4:53 AM 50.0 °F 44.1 °F 80% 29.98 in 10.0 mi SE 3.5 mph - N/A   Clear
5:53 AM 45.0 °F 43.0 °F 93% 29.99 in 10.0 mi Calm Calm - N/A   Clear
6:53 AM 48.0 °F 44.1 °F 86% 29.99 in 10.0 mi Calm Calm - N/A   Clear
7:53 AM 54.0 °F 45.0 °F 72% 30.00 in 10.0 mi South 6.9 mph - N/A   Clear
8:53 AM 59.0 °F 46.0 °F 62% 30.01 in 10.0 mi South 8.1 mph - N/A   Clear
9:53 AM 63.0 °F 48.0 °F 58% 30.02 in 10.0 mi Variable 5.8 mph - N/A   Clear
10:53 AM 68.0 °F 52.0 °F 56% 30.03 in 10.0 mi South 6.9 mph - N/A   Clear
11:53 AM 72.0 °F 55.0 °F 55% 30.02 in 10.0 mi SSW 8.1 mph - N/A   Clear
12:53 PM 73.9 °F 57.0 °F 55% 30.00 in 10.0 mi SSW 9.2 mph 17.3 mph N/A   Partly Cloudy
1:53 PM 75.9 °F 57.0 °F 52% 29.98 in 10.0 mi SW 10.4 mph 16.1 mph N/A   Partly Cloudy
2:53 PM 77.0 °F 57.0 °F 50% 29.96 in 10.0 mi South 8.1 mph 16.1 mph N/A   Clear
3:53 PM 75.9 °F 57.9 °F 54% 29.96 in 10.0 mi SSW 5.8 mph 16.1 mph N/A   Overcast
4:53 PM 75.9 °F 57.0 °F 52% 29.96 in 10.0 mi South 6.9 mph - N/A   Mostly Cloudy
5:53 PM 73.9 °F 55.9 °F 53% 29.97 in 10.0 mi South 9.2 mph - N/A   Overcast
6:53 PM 72.0 °F 55.0 °F 55% 29.97 in 10.0 mi South 4.6 mph - N/A   Clear
7:53 PM 71.1 °F 55.0 °F 57% 29.99 in 10.0 mi South 6.9 mph - N/A   Overcast
8:53 PM 73.0 °F 52.0 °F 48% 29.99 in 10.0 mi South 11.5 mph 18.4 mph N/A   Overcast
9:53 PM 72.0 °F 51.1 °F 48% 30.00 in 10.0 mi South 8.1 mph - N/A   Overcast
10:53 PM 70.0 °F 51.1 °F 51% 30.01 in 10.0 mi South 9.2 mph - N/A   Overcast
11:53 PM 66.0 °F 50.0 °F 56% 30.01 in 10.0 mi South 5.8 mph - N/A   Clear